Miscellaneous Local Product
Issued by NWS North Platte, NE

Home | Current Version | Previous Version | Text Only | Print | Product List | Glossary On
Versions: 1 2 3 4 5 6 7 8 9 10 11 12 13 14 15 16 17 18 19 20 21 22 23 24 25 26 27 28 29 30 31 32 33 34 35 36 37 38 39 40 41 42 43 44 45 46 47 48 49 50
000
AXUS43 KLBF 082210
MISLBF


WESTERN AND NORTH CENTRAL NEBRASKA HOURLY WEATHER ROUNDUP
NATIONAL WEATHER SERVICE NORTH PLATTE NE
400 PM CST THU DEC 08 2016

NOTE: "FAIR" INDICATES FEW OR NO CLOUDS BELOW 12,000 FEET WITH NO
SIGNIFICANT WEATHER AND/OR OBSTRUCTIONS TO VISIBILITY.

NOTE: STATIONS NOT REPORTING VARIABLES SUCH AS SKY/WEATHER OR
PRESSURE ARE PROVIDED BY RAWS AND APRS NETWORKS AND ARE NOT UNDER
NATIONAL WEATHER SERVICE QUALITY CONTROL.

...OBSERVATIONS IN AND NEAR THE EASTERN PANHANDLE OF NEBRASKA...

CITY           SKY/WX    TMP DP  RH WIND       PRES   REMARKS
PINE RIDGE     SUNNY     10  -3  55 E5        30.49F WCI   2
CHADRON        SUNNY     15  -3  44 NE8       30.47F WCI   4
ALLIANCE       SUNNY     18  -2  41 CALM      30.41F
SIDNEY         SUNNY     15   1  53 S7        30.41S WCI   5
$$

...OBSERVATIONS IN NORTHERN NEBRASKA AND FAR SOUTHERN SOUTH DAKOTA...

CITY           SKY/WX    TMP DP  RH WIND       PRES   REMARKS
WINNER         FAIR      14   0  53 NW13      30.61R WCI   0
VALENTINE      CLEAR     14  -3  47 NW8       30.56S WCI   3
THEDFORD       CLEAR     19  -2  39 NW5       30.53S WCI  12
AINSWORTH      CLEAR     15   0  50 NW8       30.55S WCI   4
O`NEILL        CLEAR     19   2  47 NW16      30.59R WCI   5
ORD            CLEAR     22  -1  36 NW8       30.58R WCI  12
BROKEN BOW     CLEAR     21  -1  38 NW10      30.55S WCI  10
BUTTE            N/A     13   2  62 W13G20      N/A  WCI  -1
CHAMBERS         N/A     19   1  45 N5          N/A  WCI  12
EWING            N/A     20   6  54 NW7         N/A  WCI  11
$$

...OBSERVATIONS IN SOUTHWEST NEBRASKA AND FAR NORTHEAST COLORADO...

CITY           SKY/WX    TMP DP  RH WIND       PRES   REMARKS
WRAY           FAIR      19   3  49 CALM      30.48F
HOLYOKE        FAIR      21   3  45 CALM      30.47S
IMPERIAL       SUNNY     18   0  45 CALM      30.51S
OGALLALA       SUNNY     19   2  47 CALM      30.50S
NORTH PLATTE   SUNNY     22  -2  35 W5        30.54S WCI  16
MCCOOK         SUNNY     19   4  51 CALM      30.57F
LEXINGTON      SUNNY     23   0  37 NW6       30.57S WCI  16
STAPLETON        N/A     18  -2  41 CALM        N/A
GOTHENBURG       N/A     23   0  37 NW3         N/A
CALLAWAY         N/A     20   0  42 NW6         N/A  WCI  12
$$

...OBSERVATIONS IN CENTRAL LINCOLN COUNTY AREA...

CITY           SKY/WX    TMP DP  RH WIND       PRES   REMARKS
N.P. AIRPORT   SUNNY     22  -2  35 W5        30.54S WCI  16
N.P. DOWNTOWN    N/A     20   2  45 CALM        N/A
N.P. SOUTHEAST   N/A     21   1  41 W3          N/A
N.P. HILLCREST   N/A     20   0  41 NW3         N/A
$$

...SOME OBSERVATIONS FROM AROUND THE REGION...

CITY           SKY/WX    TMP DP  RH WIND       PRES   REMARKS
LARAMIE        CLOUDY    16  -2  45 S10       30.10F WCI   4
CHEYENNE       SUNNY      9   2  73 S14       30.22S WCI  -7
DENVER         CLOUDY    18   9  68 N5        30.27S WCI  11
AKRON          SUNNY     14   4  64 SE12      30.36F WCI   0
SCOTTSBLUFF    SUNNY     17   0  47 E9        30.41S WCI   6
RAPID CITY     CLEAR     13  -4  46 NE5       30.49F WCI   5
BISMARCK       CLOUDY     4  -3  73 NW14      30.63S WCI -14
PIERRE         CLOUDY     7   1  76 N10       30.62S WCI  -8
SIOUX FALLS    PTCLDY    18   8  65 NW18      30.56R WCI   2
OMAHA          PTCLDY    25   7  46 NW17      30.61R WCI  12
GRAND ISLAND   CLEAR     23   5  46 NW10      30.61R WCI  12
KANSAS CITY    PTCLDY    25   9  50 NW10      30.60R WCI  15
WICHITA        MOSUNNY   29   6  38 N12       30.64R WCI  19
OKLAHOMA CITY  PTSUNNY   30   7  37 N13       30.63S WCI  20
DALLAS         CLOUDY    36  15  42 N14       30.60S WCI  27
AMARILLO       CLOUDY    25   6  44 E6        30.51F WCI  18
DODGE CITY     SUNNY     23   5  46 N9        30.59S WCI  13
HAYS           SUNNY     24   5  44 N9        30.62R WCI  14
GOODLAND       SUNNY     17   4  56 CALM      30.49S
$$




USA.gov is the U.S. government's official web portal to all federal, state and local government web resources and services.